[[{"header":{"parameterUnit":"m.s-1","parameterCategory":1,"la1":30.2991,"la2":30.254,"lo1":-89.0895,"lo2":-89.0444,"dx":0.0017,"dy":0.0017,"nx":28,"ny":28,"refTime":"2022-12-14T15:00:00:Z","depth":0,"parameterNumber":2,"parameterNumberName":"U-component_of_WINDS"},"data":[0,0,0,0,0,0,0,0,0,0,0,0,0,0,0,0,0,0,0,0,0,0,0,0,0,0,0,0,0,0,0,0,0,0,0,0,0,0,0,0,0,0,0,0,0,0,0,0,0,0,0,0,0,0,0,0,0,0,-2.3351,-2.3352,0,-2.3467,-2.3468,-2.347,-2.3518,-2.3518,-2.3518,-2.3518,-2.3637,-2.3641,-2.3644,0,0,0,0,0,0,0,0,0,0,0,0,0,-2.3172,-2.3175,-2.3351,-2.3352,-2.3354,-2.3467,-2.3469,-2.347,-2.3518,-2.3518,-2.3518,-2.3518,-2.3636,-2.364,-2.3644,0,0,0,0,0,0,0,0,0,0,0,0,0,-2.3265,-2.3176,-2.3351,-2.3391,-2.3396,-2.3467,-2.3469,-2.3471,-2.3518,-2.3518,-2.3518,-2.3517,-2.3635,-2.364,-2.3645,-2.3683,0,0,-2.3661,-2.3663,0,0,0,0,0,0,0,0,-2.326,-2.3272,-2.3384,-2.3389,-2.3394,-2.3478,-2.3449,-2.3542,-2.3519,-2.3472,-2.3518,-2.3517,-2.3585,-2.3594,-2.3617,-2.3689,-2.3694,-2.3661,-2.3664,-2.3666,-2.3668,0,0,0,0,0,0,0,-2.3253,-2.3267,-2.3397,-2.3386,-2.3392,-2.3404,-2.3417,-2.3467,-2.3529,-2.3476,-2.348,-2.3493,-2.3587,-2.3611,-2.362,-2.3696,-2.3661,-2.3665,-2.3669,-2.3671,-2.3807,-2.3807,0,0,0,0,0,0,-2.324,-2.3261,-2.3393,-2.34,-2.3325,-2.3408,-2.3422,-2.3451,-2.3529,-2.354,-2.3493,-2.3495,-2.3603,-2.3614,-2.3624,-2.3675,-2.3666,-2.3671,-2.3674,-2.3806,-2.3807,-2.3808,0,0,0,0,0,0,-2.3236,-2.3251,-2.3389,-2.3332,-2.335,-2.3411,-2.3444,-2.3454,-2.3478,-2.3541,-2.3553,-2.3506,-2.3603,-2.3617,-2.3669,-2.3679,-2.3673,-2.3678,-2.3806,-2.3807,-2.3807,-2.3775,0,0,0,0,0,0,-2.3231,-2.3249,-2.3264,-2.3332,-2.3353,-2.343,-2.3444,-2.3456,-2.3487,-2.349,-2.3557,-2.3567,-2.3604,-2.3661,-2.3674,-2.3686,-2.3682,-2.3805,-2.3806,-2.3807,-2.3776,-2.3775,-2.3774,0,0,0,0,0,-2.3224,-2.3251,-2.3265,-2.3281,-2.3373,-2.3431,-2.3443,-2.3484,-2.3487,-2.3503,-2.3544,-2.3565,-2.3676,-2.3665,-2.368,-2.3695,-2.3804,-2.3806,-2.3807,-2.3776,-2.3775,-2.3774,0,0,0,0,0,0,-2.3183,-2.326,-2.3277,-2.3326,-2.3372,-2.3439,-2.346,-2.3482,-2.3528,-2.3529,-2.3578,-2.3593,-2.364,-2.3673,-2.366,-2.3737,-2.3742,-2.3746,-2.3713,-2.3713,-2.3712,-2.3704,-2.3686,0,0,0,0,0,-2.318,-2.322,-2.3286,-2.3323,-2.3345,-2.3398,-2.3425,-2.3453,-2.3502,-2.3522,-2.3566,-2.3613,-2.3659,-2.3688,-2.3733,-2.3781,-2.3796,-2.3798,-2.3798,-2.3797,-2.38,-2.3828,-2.383,-2.3812,-2.3812,-2.3812,0,0,-2.3173,-2.3221,-2.3243,-2.3316,-2.3354,-2.3395,-2.3414,-2.3457,-2.3488,-2.3528,-2.358,-2.3614,-2.367,-2.372,-2.3744,-2.3748,-2.3808,-2.3798,-2.3797,-2.3801,-2.3829,-2.3831,-2.3832,-2.3813,-2.3812,-2.3812,0,0,-2.3183,-2.3222,-2.3258,-2.3296,-2.3354,-2.339,-2.3398,-2.3463,-2.3487,-2.3539,-2.3571,-2.3609,-2.3686,-2.3725,-2.3755,-2.3779,-2.3801,-2.3793,-2.3789,-2.3816,-2.3817,-2.3819,-2.3828,-2.383,-2.3796,-2.3796,-2.3796,0,-2.3168,-2.323,-2.3273,-2.3314,-2.3346,-2.3384,-2.3421,-2.3456,-2.3526,-2.3547,-2.3551,-2.3649,-2.3689,-2.3749,-2.3755,-2.3778,-2.3789,-2.3785,-2.3814,-2.3816,-2.3818,-2.3827,-2.383,-2.3794,-2.3794,-2.3795,-2.3795,0,-2.3209,-2.3252,-2.3274,-2.334,-2.3374,-2.3412,-2.3462,-2.3491,-2.3516,-2.3551,-2.3604,-2.3654,-2.3711,-2.3727,-2.3752,-2.3791,-2.3792,-2.3804,-2.381,-2.3817,-2.3827,-2.383,-2.3792,-2.3793,-2.3793,-2.3793,0,0,-2.3195,-2.3285,-2.3292,-2.3323,-2.339,-2.3425,-2.3465,-2.352,-2.3544,-2.3591,-2.3627,-2.3692,-2.3704,-2.3738,-2.3768,-2.3791,-2.3808,-2.3801,-2.3803,-2.38,-2.3854,-2.3844,-2.3847,-2.3823,-2.3823,-2.3824,-2.3849,0,-2.3213,-2.3287,-2.3328,-2.3385,-2.3425,-2.3463,-2.3498,-2.3543,-2.3578,-2.3617,-2.3656,-2.3701,-2.3713,-2.3734,-2.3759,-2.38,-2.3819,-2.3799,-2.3857,-2.3858,-2.3841,-2.3852,-2.3841,-2.3862,-2.3853,-2.3854,-2.3854,0,-2.3244,-2.3291,-2.3351,-2.3414,-2.3433,-2.3464,-2.3518,-2.3555,-2.3608,-2.3631,-2.3669,-2.3699,-2.3744,-2.3747,-2.381,-2.3795,-2.3821,-2.3845,-2.3847,-2.3854,-2.3856,-2.3859,-2.387,-2.3873,-2.386,-2.386,-2.3859,0,-2.3228,-2.3306,-2.3353,-2.3378,-2.3452,-2.3473,-2.3505,-2.3557,-2.3588,-2.3635,-2.3656,-2.3708,-2.3736,-2.3776,-2.3819,-2.3818,-2.3878,-2.3885,-2.3899,-2.3898,-2.391,-2.3908,-2.3925,-2.3927,-2.3927,-2.3927,-2.3926,0,-2.3244,-2.328,-2.3346,-2.3375,-2.3416,-2.3463,-2.3503,-2.3538,-2.3584,-2.3621,-2.3657,-2.369,-2.3745,-2.3786,-2.382,-2.3867,-2.388,-2.39,-2.3909,-2.3897,-2.3894,-2.3914,-2.3914,-2.3927,-2.3927,-2.3927,-2.3927,0,-2.3233,-2.3279,-2.3332,-2.3398,-2.3416,-2.3443,-2.35,-2.353,-2.3566,-2.3612,-2.3625,-2.3683,-2.3732,-2.378,-2.3846,-2.3869,-2.3917,-2.3928,-2.3899,-2.3903,-2.3915,-2.3913,-2.3945,-2.3952,-2.3948,-2.3948,-2.3948,0,-2.324,-2.3269,-2.3338,-2.3365,-2.3396,-2.3439,-2.347,-2.3517,-2.3549,-2.3611,-2.3633,-2.3685,-2.373,-2.3808,-2.3856,-2.3907,-2.392,-2.3928,-2.3928,-2.3915,-2.392,-2.3918,-2.3921,-2.3926,-2.3926,-2.3926,-2.3926,0,-2.3248,-2.3269,-2.3313,-2.3365,-2.3401,-2.3444,-2.3489,-2.3509,-2.3564,-2.3598,-2.3649,-2.3683,-2.3752,-2.3803,-2.386,-2.3894,-2.392,-2.3926,-2.3932,-2.3919,-2.3901,-2.3911,-2.3896,-2.3924,-2.3925,-2.3925,-2.3925,-2.3925,-2.3247,-2.3274,-2.3327,-2.3374,-2.3412,-2.3453,-2.3484,-2.3524,-2.3568,-2.3626,-2.3652,-2.3704,-2.3756,-2.3835,-2.3869,-2.3911,-2.3916,-2.3925,-2.3927,-2.3929,-2.3926,-2.3895,-2.3921,-2.3921,-2.3922,-2.3922,-2.3922,0,-2.3256,-2.3292,-2.3336,-2.3396,-2.3434,-2.3454,-2.3504,-2.3534,-2.3579,-2.3626,-2.3669,-2.3728,-2.3779,-2.3831,-2.3884,-2.3908,-2.3921,-2.392,-2.3919,-2.3926,-2.3918,-2.3907,-2.3909,-2.3909,-2.3909,-2.3909,-2.3909,-2.3909,-2.3266,-2.3313,-2.334,-2.3407,-2.3443,-2.3493,-2.352,-2.3558,-2.3596,-2.366,-2.3702,-2.3735,-2.3785,-2.3842,-2.389,-2.3904,-2.3922,-2.3918,-2.3935,-2.3926,-2.3927,-2.3928,-2.3918,-2.3922,-2.3922,-2.3941,-2.3941,-2.3941]},{"header":{"parameterUnit":"m.s-1","parameterCategory":1,"la1":30.2991,"la2":30.254,"lo1":-89.0895,"lo2":-89.0444,"dx":0.0017,"dy":0.0017,"nx":28,"ny":28,"refTime":"2022-12-14T15:00:00:Z","depth":0,"parameterNumber":3,"parameterNumberName":"V-component_of_WINDS"},"data":[0,0,0,0,0,0,0,0,0,0,0,0,0,0,0,0,0,0,0,0,0,0,0,0,0,0,0,0,0,0,0,0,0,0,0,0,0,0,0,0,0,0,0,0,0,0,0,0,0,0,0,0,0,0,0,0,0,0,5.8093,5.8095,0,5.8227,5.8229,5.823,5.8242,5.824,5.8239,5.8238,5.8372,5.8377,5.8382,0,0,0,0,0,0,0,0,0,0,0,0,0,5.7847,5.7852,5.8093,5.8095,5.8097,5.8227,5.8229,5.8231,5.8242,5.824,5.8239,5.8237,5.8371,5.8376,5.8382,0,0,0,0,0,0,0,0,0,0,0,0,0,5.7965,5.7853,5.8093,5.8118,5.8122,5.8227,5.8229,5.8231,5.8242,5.824,5.8238,5.8236,5.8369,5.8376,5.8383,5.8471,0,0,5.8406,5.8409,0,0,0,0,0,0,0,0,5.7958,5.7974,5.8113,5.8117,5.8121,5.8216,5.8191,5.8311,5.8243,5.8196,5.8238,5.8235,5.8322,5.8333,5.8362,5.8478,5.8483,5.8406,5.8411,5.8414,5.8416,0,0,0,0,0,0,0,5.795,5.7968,5.8146,5.8115,5.812,5.8123,5.8137,5.8214,5.8269,5.82,5.8202,5.8217,5.8323,5.8355,5.8366,5.8485,5.8406,5.8413,5.8417,5.842,5.8683,5.8686,0,0,0,0,0,0,5.7937,5.7961,5.8142,5.815,5.8033,5.8129,5.8145,5.8187,5.8269,5.8279,5.8219,5.8217,5.8344,5.8357,5.837,5.8482,5.8414,5.8421,5.8425,5.8681,5.8684,5.8686,0,0,0,0,0,0,5.7932,5.7953,5.8136,5.8056,5.808,5.8135,5.8183,5.8191,5.8223,5.8283,5.8292,5.8242,5.8343,5.836,5.8447,5.8487,5.8424,5.8431,5.8678,5.8682,5.8685,5.8704,0,0,0,0,0,0,5.7925,5.7951,5.7985,5.8057,5.8084,5.8211,5.8185,5.8195,5.8236,5.8235,5.8306,5.8316,5.8342,5.8436,5.8454,5.8496,5.8436,5.8674,5.8679,5.8684,5.87,5.8708,5.8715,0,0,0,0,0,5.7916,5.7984,5.7987,5.8009,5.8128,5.8213,5.8229,5.8258,5.8239,5.8274,5.8313,5.8314,5.8479,5.8445,5.8466,5.851,5.8672,5.8678,5.8684,5.8697,5.8707,5.8715,0,0,0,0,0,0,5.7914,5.7994,5.7998,5.8091,5.8146,5.8215,5.826,5.8267,5.8327,5.8324,5.8357,5.8373,5.846,5.8493,5.8453,5.8601,5.8573,5.8584,5.8577,5.8586,5.8593,5.8585,5.8443,0,0,0,0,0,5.7925,5.7988,5.8054,5.813,5.8157,5.8204,5.8242,5.826,5.8318,5.8341,5.8385,5.8441,5.8506,5.8547,5.861,5.8704,5.8722,5.8745,5.8753,5.8758,5.8767,5.8823,5.8836,5.8706,5.8705,5.8705,0,0,5.7947,5.7998,5.8036,5.8131,5.8175,5.8241,5.8223,5.8292,5.8341,5.8351,5.8437,5.8472,5.8536,5.8628,5.8671,5.8659,5.8807,5.8766,5.877,5.8776,5.8831,5.8843,5.8854,5.8709,5.8709,5.8708,0,0,5.8021,5.8065,5.8136,5.8181,5.8249,5.828,5.8297,5.8367,5.8391,5.8478,5.8488,5.8546,5.8655,5.8702,5.874,5.8835,5.8839,5.8854,5.8893,5.8947,5.8958,5.8967,5.9004,5.9016,5.8862,5.8862,5.8862,0,5.804,5.814,5.817,5.8241,5.8283,5.8296,5.8368,5.841,5.8495,5.8524,5.8509,5.865,5.8693,5.8798,5.8822,5.8851,5.8872,5.8847,5.8954,5.8963,5.8972,5.9008,5.9021,5.8864,5.8864,5.8864,5.8863,0,5.8161,5.823,5.8278,5.8363,5.841,5.848,5.8522,5.8566,5.8581,5.8614,5.8703,5.8756,5.8832,5.8857,5.8871,5.8965,5.8956,5.8947,5.892,5.8986,5.902,5.9034,5.8866,5.8866,5.8865,5.8865,0,0,5.8238,5.834,5.8358,5.8398,5.8475,5.8528,5.86,5.8675,5.8714,5.8771,5.8834,5.8928,5.8921,5.8964,5.8983,5.903,5.9106,5.9016,5.9018,5.9033,5.9217,5.9225,5.924,5.9108,5.9111,5.9113,5.9212,0,5.8324,5.8454,5.8485,5.8596,5.8661,5.8675,5.8738,5.8792,5.8825,5.8886,5.8921,5.8989,5.8973,5.9,5.9047,5.9087,5.9144,5.9079,5.9168,5.9171,5.9155,5.9258,5.9266,5.9358,5.9226,5.9228,5.9229,0,5.8442,5.8505,5.8624,5.8695,5.8724,5.878,5.8853,5.891,5.8972,5.8993,5.9042,5.9057,5.9133,5.9101,5.9208,5.9163,5.9201,5.9226,5.9231,5.9242,5.9206,5.9275,5.9387,5.9402,5.925,5.9248,5.9247,0,5.849,5.8605,5.8692,5.8724,5.8809,5.8849,5.8886,5.8946,5.899,5.9053,5.9083,5.9153,5.9192,5.9246,5.928,5.9253,5.9385,5.9355,5.9406,5.9406,5.9435,5.9433,5.9558,5.9454,5.9454,5.9454,5.9454,0,5.8585,5.8657,5.8715,5.8769,5.8851,5.8885,5.8966,5.9003,5.9057,5.9118,5.9133,5.919,5.923,5.9293,5.932,5.9406,5.9422,5.9442,5.9449,5.9443,5.9441,5.947,5.9466,5.9458,5.9457,5.9456,5.9456,0,5.8654,5.8695,5.8791,5.8864,5.8885,5.8942,5.9005,5.9058,5.9091,5.9169,5.9189,5.9242,5.9317,5.9356,5.9449,5.9467,5.9565,5.9566,5.9545,5.9548,5.9598,5.9594,5.9748,5.9771,5.9649,5.965,5.9651,0,5.8713,5.8769,5.885,5.8893,5.8931,5.9,5.9046,5.9082,5.9129,5.9206,5.925,5.9326,5.939,5.9509,5.9556,5.9628,5.9633,5.9682,5.9643,5.9637,5.9637,5.9635,5.9642,5.9689,5.969,5.9691,5.9692,0,5.8814,5.8832,5.8898,5.8973,5.9028,5.9088,5.9147,5.9181,5.9226,5.9279,5.9357,5.9406,5.9503,5.9579,5.9655,5.9693,5.9701,5.9703,5.972,5.9715,5.9702,5.9713,5.9566,5.97,5.9699,5.9699,5.9698,5.9698,5.8882,5.8935,5.9,5.9074,5.9123,5.9179,5.9233,5.9275,5.9341,5.9423,5.944,5.9523,5.9586,5.969,5.973,5.9796,5.9786,5.9808,5.9815,5.982,5.9825,5.9689,5.9809,5.9809,5.9809,5.9809,5.9809,0,5.8987,5.9031,5.9098,5.9182,5.9241,5.9244,5.931,5.9359,5.9433,5.9491,5.9554,5.9645,5.972,5.9773,5.9849,5.9892,5.9898,5.9911,5.991,5.9919,5.9828,5.9808,5.9905,5.9905,5.9905,5.9905,5.9905,5.9905,5.9049,5.9139,5.9166,5.9281,5.9323,5.9407,5.9445,5.9496,5.9544,5.9646,5.9709,5.9743,5.98,5.9881,5.995,5.9964,5.9992,6.0006,6.002,5.9935,5.9925,5.9915,5.9897,6.0011,6.0011,6.0107,6.0107,6.0108]}]]